星链-31971 (STARLINK-31971 )

导读

STARLINK-31971是美国SpaceX公司星链星座的一员,于2024年6月1日发射升空。星链计划旨在构建全球卫星互联网星座,为全球提供高速低延迟网络服务,尤其覆盖偏远地区。STARLINK-31971入轨后,将与其他星链卫星组网,进一步拓展星座服务能力,增强全球互联覆盖,推动卫星互联网技术发展与应用普及。

基本信息
目录编号:
59934
目录名称:
STARLINK-31971
国际标识:
2024-106N
轨道中心:
EARTH
卫星名称:
星链-31971
卫星全名:
星链-31971 (STARLINK-31971 )
卫星状态:
在轨 (已飞行825 天)
发射日期:
2024-06-01 UTC
国别 :
美国 (US)
星等 :
--
轨道信息
数据来源 国际轨道数据 AOE轨道数据
星历时间 2026-09-03T20:17:25+0800
18小时前
查看轨道信息
2026-09-01T02:00:00+0800
3天前
查看轨道信息
半长轴 6861.191km 6861.239km
偏心率 0.0001526 0.0000191
轨道倾角 43.004° 43.002°
近地点辐角 267.714° 263.648°
升交点赤经 45.075° 60.680°
平近点角 92.353° 9.008°
近地点 482.006km 482.97km
远地点 484.102km 483.234km
周期 94.267分钟 94.268分钟
每日圈数 15.275786 15.275625
详细信息
固有亮度:
5
最大亮度:
1.5
卫星平台:
Starlink v2.0 mini
覆盖范围:
全球
运营商:
太空探索技术公司
运营商所在国:
美国
制造商(研发单位):
太空探索技术公司
制造商所在国:
美国
使用方式:
暂无
卫星简介
星链(Starlink)计划是由太空探索技术公司(SpaceX)提出的一个巨型低轨卫星互联网星座项目,计划在2019年至2024年间在太空搭建由约1.2万颗卫星组成的“星链”网络,其中1584颗将部署在地球上空550千米处的近地轨道,并从2020年开始工作。该卫星仍在工作。
2D轨道图
3D轨道图
轨道高度分析图
轨道倾角分析图
轨道综合分析图
查看轨道综合分析图